This is the latest recevied weather packets stored in our database for station/object KC3VCX. If no packets are shown the sender has not sent any weather packets the latest 10 day(s).
| Time | Temp. | Humidity | Pressure | Rain* | Wind** | Luminosity | Snow |
|---|---|---|---|---|---|---|---|
| 1777672500 | 7.78° C | 89% | 1013.7 hPa | 0 mm | - | 60 W/m² | - |
| 1777672195 | 7.78° C | 89% | 1013.5 hPa | 0 mm | - | 52 W/m² | - |
| 1777671891 | 7.22° C | 89% | 1013.4 hPa | 0 mm | - | 83 W/m² | - |
| 1777671587 | 7.78° C | 90% | 1013.5 hPa | 0 mm | - | 74 W/m² | - |
| 1777671284 | 7.22° C | 90% | 1014 hPa | 1.27 mm | - | 78 W/m² | - |
| 1777670979 | 7.78° C | 89% | 1013.9 hPa | 1.27 mm | - | 32 W/m² | - |
| 1777670676 | 7.22° C | 89% | 1013.9 hPa | 3.05 mm | - | 41 W/m² | - |
| 1777670373 | 7.78° C | 89% | 1013.9 hPa | 1.78 mm | - | 28 W/m² | - |
| 1777670071 | 7.78° C | 88% | 1014.1 hPa | 1.27 mm | - | 30 W/m² | - |
| 1777669768 | 7.78° C | 88% | 1014.1 hPa | 1.27 mm | - | 23 W/m² | - |
| 1777669464 | 7.78° C | 88% | 1013.7 hPa | 0 mm | - | 30 W/m² | - |
| 1777669161 | 7.78° C | 88% | 1013.7 hPa | 0 mm | - | 28 W/m² | - |
| 1777668858 | 7.78° C | 88% | 1013.6 hPa | 0 mm | - | 32 W/m² | - |
| 1777668555 | 7.78° C | 87% | 1013.6 hPa | 0 mm | - | 40 W/m² | - |
| 1777668250 | 7.78° C | 87% | 1013.3 hPa | 0 mm | - | 53 W/m² | - |
| 1777667946 | 7.78° C | 87% | 1013.4 hPa | 1.78 mm | - | 51 W/m² | - |
| 1777667644 | 7.78° C | 86% | 1013.4 hPa | 3.05 mm | - | 79 W/m² | - |
| 1777667342 | 7.78° C | 85% | 1013.4 hPa | 3.05 mm | - | 104 W/m² | - |
| 1777667038 | 7.78° C | 84% | 1013.6 hPa | 1.78 mm | - | 73 W/m² | - |
| 1777666735 | 8.33° C | 83% | 1013.6 hPa | 0 mm | - | 76 W/m² | - |
| 1777666432 | 8.33° C | 81% | 1013.6 hPa | 1.78 mm | - | 61 W/m² | - |
| 1777666128 | 8.89° C | 82% | 1013.8 hPa | 1.78 mm | - | 34 W/m² | - |
| 1777665825 | 8.89° C | 81% | 1013.5 hPa | 0 mm | - | 80 W/m² | - |
| 1777665523 | 8.89° C | 80% | 1013.4 hPa | 0 mm | - | 85 W/m² | - |
| 1777665219 | 8.89° C | 81% | 1013.5 hPa | 0 mm | - | 144 W/m² | - |
* Rain latest hour (hover to see other rain measurements)
** Current wind speed in m/s (hover to see current wind gust speed)